Flag for Japan Weather past 2 weeks in Yokosuka, Japan

Now
72 °F

Partly sunny.


Feels Like: 74 °F
Forecast: 68 / 79 °F
Wind: 17 mph from Northeast

Location: Tokyo International Airport

Current Time: May 29, 2015 at 12:04:03 PM

Latest Report: May 29, 2015 at 11:30 AM


Visibility: N/A

Pressure: 29.83 "Hg

Humidity: 73%

Dew point: 63 °F

Location of YokosukaLocation

Historic Weather in Yokosuka — Graph

°F

Yokosuka temperature yesterday

Maximum temperature yesterday: 81 °F (at 2:00 PM)
Minimum temperature yesterday: 66 °F (at 12:00 AM)
Average temperature yesterday: 71 °F

Past Weeks' High & Low Weather Summary

 TemperatureHumidityPressure
High82 °F (May 26, 3:00 PM)94% (May 15, 10:30 PM)29.98 "Hg (May 15, 10:30 PM)
Low59 °F (May 21, 5:00 AM)26% (May 17, 2:00 PM)29.45 "Hg (May 20, 4:00 PM)
Average71 °F71%29.78 "Hg
* Reported May 14 10:00 AM — May 29 10:30 AM, Yokosuka, Weather by CustomWeather, © 2015

Note: Actual official high and low records may vary slightly from our data, if they occured in-between our weather recording intervals... More about our weather records

Advertising

Yokosuka weather history for previous 24 hours

 ConditionsComfort  
Time TempWeatherWind HumidityBarometerVisibility
10:30 AM
Fri, May 29
72 °FPartly sunny.15 mph73%29.86 "HgN/A
10:00 AM72 °FPartly sunny.15 mph73%29.86 "HgN/A
9:30 AM72 °FMostly cloudy.15 mph73%29.86 "HgN/A
9:00 AM72 °FMore clouds than sun.13 mph78%29.89 "HgN/A
8:30 AM72 °FMostly cloudy.14 mph78%29.89 "HgN/A
8:00 AM72 °FBroken clouds.14 mph78%29.89 "HgN/A
7:00 AM70 °FBroken clouds.14 mph83%29.89 "HgN/A
6:30 AM70 °FBroken clouds.14 mph83%29.89 "HgN/A
6:00 AM70 °FBroken clouds.13 mph83%29.89 "HgN/A
5:30 AM70 °FMore clouds than sun.13 mph83%29.89 "HgN/A
5:00 AM70 °FMore clouds than sun.12 mph83%29.89 "HgN/A
4:30 AM70 °FMore clouds than sun.9 mph78%29.92 "HgN/A
4:00 AM70 °FOvercast.9 mph78%29.92 "HgN/A
3:30 AM70 °FOvercast.7 mph78%29.89 "HgN/A
3:00 AM70 °FOvercast.6 mph83%29.92 "HgN/A
2:30 AM70 °FOvercast.6 mph78%29.92 "HgN/A
2:00 AM70 °FOvercast.7 mph78%29.92 "HgN/A
1:30 AM70 °FMostly cloudy.5 mph83%29.92 "HgN/A
1:00 AM70 °FMostly cloudy.3 mph83%29.95 "HgN/A
12:30 AM70 °FOvercast.2 mph78%29.95 "HgN/A
12:00 AM70 °FOvercast.3 mph83%29.95 "HgN/A
11:30 PM
Thu, May 28
72 °FOvercast.2 mph78%29.95 "HgN/A
11:00 PM70 °FMostly cloudy.2 mph83%29.98 "HgN/A
10:30 PM70 °FOvercast.3 mph83%29.98 "HgN/A
10:00 PM70 °FOvercast.6 mph78%29.98 "HgN/A
9:30 PM70 °FOvercast.6 mph78%29.98 "HgN/A
9:00 PM72 °FOvercast.8 mph78%29.98 "HgN/A
8:30 PM72 °FOvercast.10 mph73%29.98 "HgN/A
8:00 PM72 °FOvercast.12 mph73%29.95 "HgN/A
7:30 PM72 °FOvercast.12 mph73%29.95 "HgN/A
7:00 PM73 °FOvercast.13 mph65%29.95 "HgN/A
6:30 PM73 °FOvercast.13 mph65%29.95 "HgN/A
6:00 PM75 °FOvercast.14 mph65%29.92 "HgN/A
5:30 PM77 °FOvercast.14 mph57%29.92 "HgN/A
5:00 PM77 °FOvercast.14 mph57%29.92 "HgN/A
4:30 PM77 °FOvercast.14 mph61%29.92 "HgN/A
4:00 PM79 °FOvercast.14 mph61%29.89 "HgN/A
3:30 PM77 °FOvercast.15 mph65%29.89 "HgN/A
3:00 PM79 °FOvercast.14 mph61%29.89 "HgN/A
2:30 PM79 °FPartly sunny.12 mph54%29.89 "HgN/A
2:00 PM81 °FPartly sunny.12 mph51%29.89 "HgN/A
1:30 PM79 °FOvercast.9 mph54%29.92 "HgN/A
1:00 PM75 °FPartly sunny.6 mph61%29.92 "HgN/A
12:30 PM75 °FPartly sunny.5 mph65%29.92 "HgN/A
12:00 PM73 °FPartly sunny.8 mph69%29.92 "HgN/A
Weather by CustomWeather, © 2015

See weather overviewHow to use our weather pages